Location: Qazi Observatory
(41.6337°N, 88.1517°W)
Time: 18:40:17
(UTC-05:00)

Amateur Radio Satellites - All Passes

Search period start: 22 May 2015 18:10
Search period end: 23 May 2015 18:10
Location: Qazi Observatory, 41.6337°N, 88.1517°W

Satellite Date Start Highest point End Downlink Frequencies (MHz)
Time Altitude Azimuth
O/OREOS (USA 219) 22 May 18:18:24 18:21:28 17° 307° (NW) 18:24:23 437.305
CUBESAT XI-V 22 May 18:24:26 18:28:04 22° 92° (E) 18:31:48 437.345
MOZHAYETS 4 22 May 18:36:55 18:40:37 24° 292° (WNW) 18:44:12
BEESAT 2 22 May 18:37:46 18:40:22 17° 111° (ESE) 18:43:06 435.950
YUBILEINY 22 May 18:42:29 18:50:44 46° 73° (ENE) 18:59:01 435.215
PRISM 22 May 18:44:24 18:46:36 14° 91° (E) 18:48:59 437.425
Cosmos 2491 22 May 18:46:26 18:52:41 23° 81° (E) 18:59:20 435.465 / 435.565
CUTE-I 22 May 18:51:12 18:56:20 50° 260° (W) 19:01:31 437.470
Cubesat XI-IV 22 May 19:10:46 19:15:33 33° 264° (W) 19:20:20 437.490
M-CUBED/EXP-1 PRIME 22 May 19:20:05 19:21:02 11° 95° (E) 19:22:10 437.505
STRAND 1 22 May 19:20:37 19:25:16 34° 96° (E) 19:29:58 437.568
HO-68 22 May 19:22:31 19:28:16 28° 60° (ENE) 19:34:10 435.675
BRITE-PL 22 May 19:29:16 19:33:43 35° 69° (ENE) 19:38:33 437.365/2234.400
RS-15 22 May 19:31:37 19:43:14 76° 241° (WSW) 19:55:17 29.354- 29.394
BEESAT 3 22 May 19:31:53 19:35:57 80° 121° (ESE) 19:40:05 437.485
AUBIESAT-1 22 May 19:32:18 19:34:04 14° 97° (E) 19:35:56 437.475
AIST 2 22 May 19:33:33 19:36:34 20° 112° (ESE) 19:39:44 435.215
SEEDS 22 May 19:40:36 19:42:31 13° 65° (ENE) 19:44:36 437.485
DOVE 4 22 May 19:44:28 19:48:17 23° 65° (ENE) 19:52:21 437.250
GOMX 1 22 May 19:56:38 20:01:19 42° 71° (ENE) 20:06:20 467.674
CINEMA 3 22 May 19:59:36 20:02:29 16° 64° (ENE) 20:05:36 145.822/145.860
COMPASS 1 22 May 20:00:53 20:03:35 17° 67° (ENE) 20:06:26 437.405
CUBESAT XI-V 22 May 20:01:19 20:05:39 37° 289° (WNW) 20:09:56 437.345
BEESAT 2 22 May 20:14:09 20:18:07 46° 307° (NW) 20:22:09 435.950
AAUSAT CUBESAT 2 22 May 20:16:44 20:19:55 22° 68° (ENE) 20:23:11 437.432
PRISM 22 May 20:18:22 20:22:21 46° 288° (WNW) 20:26:20 437.425
Oscar 11 22 May 20:34:31 20:37:16 17° 66° (ENE) 20:40:11 145.826/435.025
CANX-2 22 May 20:38:57 20:43:13 76° 77° (ENE) 20:47:30 2200.000
YUBILEINY 22 May 20:39:35 20:47:29 39° 273° (W) 20:55:13 435.215
Cosmos 2491 22 May 20:39:58 20:48:45 75° 280° (W) 20:57:37 435.465 / 435.565
CUTE 1.7 + AOD 2 22 May 20:43:16 20:47:32 77° 76° (ENE) 20:51:49 437.475
UWE-3 22 May 20:44:51 20:47:54 18° 66° (ENE) 20:51:07 435.000/436.395/437.385
M-CUBED/EXP-1 PRIME 22 May 20:53:05 20:56:13 36° 293° (WNW) 20:59:15 437.505
AIST 1 22 May 20:57:07 21:00:57 35° 92° (E) 21:04:51
STRAND 1 22 May 20:59:57 21:04:24 29° 293° (WNW) 21:08:46 437.568
AUBIESAT-1 22 May 21:06:05 21:09:02 29° 294° (WNW) 21:11:55 437.475
Cosmos 2504 22 May 21:07:29 21:14:02 35° 71° (ENE) 21:20:33 435.465 / 435.565
FUNcube-1 22 May 21:07:30 21:11:02 23° 67° (ENE) 21:14:40 145.935
BRITE-PL 22 May 21:08:02 21:12:18 28° 268° (W) 21:16:48 437.365/2234.400
HO-68 22 May 21:08:27 21:15:34 62° 258° (WSW) 21:22:42 435.675
AIST 2 22 May 21:10:48 21:14:53 43° 308° (NW) 21:19:00 435.215
BEESAT 3 22 May 21:12:16 21:14:31 14° 321° (NW) 21:16:40 437.485
SEEDS 22 May 21:13:41 21:17:52 59° 260° (W) 21:22:03 437.485
DELFI C3 22 May 21:15:59 21:19:33 32° 71° (ENE) 21:23:11 145.870
DOVE 4 22 May 21:20:53 21:25:42 47° 263° (W) 21:30:45 437.250
CUBEBUG 2 22 May 21:21:52 21:26:26 50° 73° (ENE) 21:31:05 437.445
CINEMA 3 22 May 21:34:16 21:39:09 66° 259° (W) 21:44:12 145.822/145.860
COMPASS 1 22 May 21:35:00 21:39:00 41° 262° (W) 21:42:59 437.405
GOMX 1 22 May 21:35:35 21:39:39 24° 269° (W) 21:43:50 467.674
ZACube-1 22 May 21:44:49 21:49:19 55° 74° (ENE) 21:53:50 437.345
RS-15 22 May 21:46:46 21:54:10 18° 259° (W) 22:00:49 29.354- 29.394
AAUSAT CUBESAT 2 22 May 21:51:37 21:55:23 31° 264° (W) 21:59:07 437.432
VELOX 1 22 May 21:55:27 21:58:29 19° 66° (ENE) 22:01:40 145.980
UKube-1 22 May 21:57:27 22:01:23 36° 70° (ENE) 22:05:22 .
DX 1 22 May 21:58:54 22:02:56 40° 71° (ENE) 22:07:03 434.975-435.025
CUBEBUG 1 22 May 22:08:48 22:10:44 13° 64° (ENE) 22:12:53 437.445
Oscar 11 22 May 22:08:59 22:13:09 45° 261° (W) 22:17:20 145.826/435.025
HUMSAT D 22 May 22:18:28 22:22:43 58° 74° (ENE) 22:26:59 437.325/437.525
UWE-3 22 May 22:19:30 22:24:04 51° 261° (W) 22:28:40 435.000/436.395/437.385
AISAT 22 May 22:24:06 22:28:10 38° 71° (ENE) 22:32:20 437.250
AIST 1 22 May 22:35:41 22:38:47 19° 290° (WNW) 22:41:46
Cosmos 2491 22 May 22:42:29 22:47:35 15° 304° (NW) 22:52:10 435.465 / 435.565
FUNcube-1 22 May 22:42:53 22:47:10 37° 264° (W) 22:51:25 145.935
TIGRISAT 22 May 22:43:39 22:47:05 22° 92° (E) 22:50:32 435.000
50 SAT 22 May 22:46:12 22:50:12 69° 76° (ENE) 22:54:12 437.505
DELFI C3 22 May 22:51:45 22:54:46 20° 267° (W) 22:57:41 145.870
NANOSAT C BR1 22 May 22:59:38 23:02:02 15° 90° (E) 23:04:37 145.865
CUBEBUG 2 22 May 23:00:11 23:03:27 18° 270° (W) 23:06:33 437.445
Cosmos 2504 22 May 23:00:49 23:07:30 40° 271° (W) 23:14:01 435.465 / 435.565
UNISAT 6 22 May 23:01:30 23:05:35 35° 97° (E) 23:09:35 437.425
QB50P2 22 May 23:03:44 23:06:32 17° 91° (E) 23:09:29 145.880/145.840
SPROUT 22 May 23:05:40 23:08:00 15° 65° (ENE) 23:10:29 437.525
GONETS M04 22 May 23:11:45 23:16:49 17° 57° (ENE) 23:22:20
ESTCUBE 1 22 May 23:14:22 23:18:50 74° 75° (ENE) 23:23:19 437.505/2401.250
POPSAT HIP 1 22 May 23:16:47 23:20:13 23° 94° (E) 23:23:41 437.405
CUSAT 1 22 May 23:19:29 23:24:59 21° 58° (ENE) 23:30:02 437.405
DUCHIFAT 1 22 May 23:22:33 23:26:09 26° 95° (E) 23:29:47 145.980
ZACube-1 22 May 23:23:21 23:26:04 15° 271° (W) 23:28:36 437.345
VELOX 1 22 May 23:30:34 23:34:46 42° 262° (W) 23:39:00 145.980
UKube-1 22 May 23:34:23 23:37:39 20° 267° (W) 23:40:50 .
DX 1 22 May 23:36:18 23:39:24 18° 268° (W) 23:42:23 434.975-435.025
CUBEBUG 1 22 May 23:42:19 23:46:37 63° 259° (W) 23:50:59 437.445
ANTELSAT 22 May 23:44:28 23:48:55 77° 284° (WNW) 23:53:14 437.575/2403.000
TISAT 1 22 May 23:46:06 23:49:43 28° 69° (ENE) 23:53:25 437.305
HUMSAT D 22 May 23:56:55 23:58:54 13° 272° (W) 00:00:41 437.325/437.525
DANDE 22 May 23:57:43 00:04:58 33° 65° (ENE) 00:11:18 436.750
POLYITAN 1 23 May 00:00:05 00:04:24 74° 102° (ESE) 00:08:40 437.675
QB50P1 23 May 00:00:45 00:05:04 74° 102° (ESE) 00:09:20 145.935-145.965
AISAT 23 May 00:01:35 00:04:56 20° 268° (W) 00:08:11 437.250
BUGSAT 1 23 May 00:06:40 00:10:54 57° 100° (E) 00:15:06 437.445
ISS 23 May 00:08:54 00:09:53 11° 130° (SE) 00:10:59 145.825
BEESAT 23 May 00:13:11 00:14:16 11° 60° (ENE) 00:15:37 436.000
SWISSCUBE 23 May 00:19:33 00:21:52 14° 62° (ENE) 00:24:24 437.505
TIGRISAT 23 May 00:19:55 00:23:57 33° 290° (WNW) 00:27:49 435.000
NANOSAT C BR1 23 May 00:34:03 00:38:11 47° 288° (WNW) 00:42:17 145.865
QB50P2 23 May 00:38:36 00:42:40 41° 288° (WNW) 00:46:40 145.880/145.840
UNISAT 6 23 May 00:38:45 00:42:11 22° 293° (WNW) 00:45:26 437.425
SPROUT 23 May 00:39:27 00:43:41 54° 261° (W) 00:47:57 437.525
POPSAT HIP 1 23 May 00:52:19 00:56:07 30° 290° (WNW) 00:59:50 437.405
ESTCUBE 1 23 May 00:55:32 00:56:20 10° 273° (W) 00:56:49 437.505/2401.250
DUCHIFAT 1 23 May 00:58:17 01:01:56 27° 291° (WNW) 01:05:30 145.980
CUSAT 1 23 May 01:01:07 01:08:54 79° 263° (W) 01:15:03 437.405
GONETS M04 23 May 01:06:35 01:15:27 80° 81° (E) 01:24:12
O/OREOS (USA 219) 23 May 01:09:30 01:11:21 13° 49° (NE) 01:13:25 437.305
PCSat 23 May 01:18:31 01:23:02 28° 110° (ESE) 01:27:41 145.827
TISAT 1 23 May 01:21:58 01:25:30 25° 266° (W) 01:28:59 437.305
KKS-1 23 May 01:31:39 01:33:11 12° 62° (ENE) 01:34:56 437.445
ITUPSAT 1 23 May 01:36:01 01:40:45 70° 74° (ENE) 01:45:30 437.325
POLYITAN 1 23 May 01:38:26 01:39:46 11° 297° (WNW) 01:40:52 437.675
QB50P1 23 May 01:39:04 01:40:23 11° 297° (WNW) 01:41:28 145.935-145.965
DANDE 23 May 01:40:42 01:48:42 54° 268° (W) 01:55:14 436.750
ISS 23 May 01:42:39 01:45:54 82° 326° (NW) 01:49:10 145.825
BUGSAT 1 23 May 01:43:40 01:45:56 14° 296° (WNW) 01:48:01 437.445
BEESAT 23 May 01:46:43 01:51:28 90° 261° (W) 01:56:15 436.000
Cosmos 2499 23 May 01:50:06 01:55:49 26° 68° (ENE) 02:01:42 435.465 / 435.565
SWISSCUBE 23 May 01:54:30 01:59:14 70° 258° (WSW) 02:03:59 437.505
Oscar 19 23 May 02:05:24 02:10:25 49° 99° (E) 02:15:24 437.125/150
ITAMSAT 1 23 May 02:10:33 02:13:37 16° 90° (E) 02:16:56 435.822/435.867
Gurwin Techsat 1B 23 May 02:20:55 02:24:38 20° 91° (E) 02:28:31 435.225
STARS 23 May 02:44:15 02:48:23 40° 71° (ENE) 02:52:36 437.465
CUSAT 1 23 May 02:46:41 02:50:06 13° 283° (WNW) 02:52:48 437.405
O/OREOS (USA 219) 23 May 02:46:58 02:51:26 77° 249° (WSW) 02:55:53 437.305
BEESAT 2 23 May 02:56:13 02:58:32 15° 40° (NE) 03:00:59 435.950
PCSat 23 May 03:01:10 03:06:17 42° 307° (NW) 03:11:27 145.827
KKS-1 23 May 03:04:47 03:09:16 75° 258° (WSW) 03:13:47 437.445
GONETS M04 23 May 03:05:07 03:11:23 21° 280° (W) 03:17:11
VERMONT LUNAR 23 May 03:15:19 03:17:11 15° 151° (SSE) 03:19:07 437.305
ITUPSAT 1 23 May 03:17:10 03:19:14 12° 272° (W) 03:21:01 437.325
ISS 23 May 03:20:14 03:22:43 19° 344° (NNW) 03:25:11 145.825
AO-7 23 May 03:30:15 03:35:23 18° 88° (E) 03:40:58 29.400- 29.500
SO-50 23 May 03:36:14 03:39:43 22° 112° (ESE) 03:43:24 436.795
Cosmos 2499 23 May 03:42:34 03:49:25 53° 268° (W) 03:56:15 435.465 / 435.565
Oscar 19 23 May 03:45:33 03:49:28 21° 296° (WNW) 03:53:13 437.125/150
HORYU 2 23 May 03:48:23 03:51:45 21° 93° (E) 03:55:12 437.375
ITAMSAT 1 23 May 03:48:28 03:53:39 62° 287° (WNW) 03:58:47 435.822/435.867
BEESAT 3 23 May 03:50:29 03:54:28 50° 53° (NE) 03:58:24 437.485
AIST 2 23 May 03:54:35 03:57:25 17° 41° (NE) 04:00:18 435.215
Gurwin Techsat 1B 23 May 03:59:49 04:05:00 53° 288° (WNW) 04:10:08 435.225
MOZHAYETS 4 23 May 04:01:33 04:05:39 33° 70° (ENE) 04:09:46
STARS 23 May 04:21:50 04:25:03 19° 268° (W) 04:28:09 437.465
JAS-2 23 May 04:24:26 04:29:25 45° 98° (E) 04:34:26 435.910
PHONESAT 2.4 23 May 04:27:00 04:29:13 16° 151° (SSE) 04:31:29 2401.200-2431.200
BEESAT 2 23 May 04:33:03 04:37:10 72° 239° (WSW) 04:41:11 435.950
VERMONT LUNAR 23 May 04:50:53 04:53:59 48° 166° (SSE) 04:57:06 437.305
Cosmos 2491 23 May 04:57:32 04:59:24 11° 51° (NE) 05:02:00 435.465 / 435.565
ISS 23 May 04:58:08 05:00:03 14° 4° (N) 05:01:58 145.825
SO-50 23 May 05:15:24 05:19:57 47° 309° (NW) 05:24:40 436.795
AO-7 23 May 05:21:00 05:29:25 89° 103° (ESE) 05:37:49 29.400- 29.500
HORYU 2 23 May 05:24:28 05:28:31 35° 290° (WNW) 05:32:31 437.375
CUBESAT XI-V 23 May 05:28:22 05:31:53 23° 67° (ENE) 05:35:32 437.345
BEESAT 3 23 May 05:29:39 05:32:06 15° 249° (WSW) 05:34:22 437.485
AIST 2 23 May 05:32:14 05:36:25 60° 241° (WSW) 05:40:29 435.215
PRISM 23 May 05:35:59 05:37:24 12° 63° (ENE) 05:39:01 437.425
MOZHAYETS 4 23 May 05:39:11 05:42:56 24° 267° (W) 05:46:36
Cubesat XI-IV 23 May 05:49:50 05:51:30 12° 86° (E) 05:53:32 437.490
PHONESAT 2.4 23 May 06:03:33 06:06:55 51° 166° (SSE) 06:10:18 2401.200-2431.200
M-CUBED/EXP-1 PRIME 23 May 06:06:57 06:10:21 24° 65° (ENE) 06:13:38 437.505
JAS-2 23 May 06:10:22 06:14:20 22° 296° (WNW) 06:18:08 435.910
AUBIESAT-1 23 May 06:19:10 06:22:46 27° 66° (ENE) 06:26:12 437.475
VERMONT LUNAR 23 May 06:27:54 06:31:06 73° 182° (S) 06:34:17 437.305
ISS 23 May 06:34:20 06:37:15 29° 24° (NNE) 06:40:11 145.825
STRAND 1 23 May 06:36:38 06:41:31 51° 71° (ENE) 06:46:28 437.568
Cosmos 2491 23 May 06:50:11 06:58:52 57° 76° (ENE) 07:07:31 435.465 / 435.565
SO-50 23 May 07:00:55 07:01:48 10° 331° (NNW) 07:02:31 436.795
CUBESAT XI-V 23 May 07:04:54 07:09:09 36° 263° (W) 07:13:25 437.345
CUTE-I 23 May 07:07:48 07:13:08 64° 101° (ESE) 07:18:28 437.470
PRISM 23 May 07:08:21 07:12:24 62° 259° (WSW) 07:16:28 437.425
AO-7 23 May 07:15:09 07:21:18 23° 307° (NW) 07:27:09 29.400- 29.500
Cubesat XI-IV 23 May 07:27:01 07:32:25 86° 287° (WNW) 07:37:48 437.490
BRITE-PL 23 May 07:35:25 07:37:57 13° 85° (E) 07:40:46 437.365/2234.400
M-CUBED/EXP-1 PRIME 23 May 07:41:07 07:45:05 32° 258° (WSW) 07:48:46 437.505
PHONESAT 2.4 23 May 07:41:28 07:44:56 74° 183° (S) 07:48:24 2401.200-2431.200
YUBILEINY 23 May 07:43:21 07:51:43 53° 90° (E) 08:00:08 435.215
RS-15 23 May 07:50:11 07:54:55 15° 99° (E) 08:00:38 29.354- 29.394
AUBIESAT-1 23 May 07:53:46 07:57:29 27° 259° (WSW) 08:00:56 437.475
GOMX 1 23 May 08:00:08 08:02:44 14° 86° (E) 08:05:35 467.674
VERMONT LUNAR 23 May 08:05:09 08:08:09 37° 199° (SSW) 08:11:08 437.305
ISS 23 May 08:10:38 08:13:45 41° 221° (SW) 08:16:51 145.825
STRAND 1 23 May 08:17:24 08:21:04 19° 269° (W) 08:24:36 437.568
CANX-2 23 May 08:25:58 08:27:44 13° 89° (E) 08:29:43 2200.000
CUTE 1.7 + AOD 2 23 May 08:30:11 08:31:58 13° 89° (E) 08:33:58 437.475
HO-68 23 May 08:36:36 08:42:16 26° 92° (E) 08:48:08 435.675
AIST 1 23 May 08:40:54 08:45:16 76° 264° (W) 08:49:39
Cosmos 2491 23 May 08:47:47 08:55:20 32° 275° (W) 09:02:35 435.465 / 435.565
CUTE-I 23 May 08:49:07 08:52:46 18° 297° (WNW) 08:56:12 437.470
SEEDS 23 May 08:58:28 09:01:40 22° 93° (E) 09:04:58 437.485
Cubesat XI-IV 23 May 09:09:33 09:11:49 12° 301° (WNW) 09:13:48 437.490
ANTELSAT 23 May 09:10:14 09:11:31 11° 62° (ENE) 09:13:05 437.575/2403.000
BRITE-PL 23 May 09:11:31 09:17:16 84° 285° (WNW) 09:22:49 437.365/2234.400
COMPASS 1 23 May 09:18:20 09:21:57 29° 95° (E) 09:25:36 437.405
PHONESAT 2.4 23 May 09:19:38 09:22:54 39° 199° (SSW) 09:26:10 2401.200-2431.200
DOVE 4 23 May 09:19:56 09:25:02 52° 98° (E) 09:29:53 437.250
CINEMA 3 23 May 09:29:47 09:34:02 31° 94° (E) 09:38:09 145.822/145.860
AAUSAT CUBESAT 2 23 May 09:34:01 09:37:52 37° 97° (E) 09:41:43 437.432
GOMX 1 23 May 09:36:06 09:41:34 76° 286° (WNW) 09:46:48 467.674
YUBILEINY 23 May 09:41:01 09:48:55 35° 291° (WNW) 09:56:40 435.215
TIGRISAT 23 May 09:42:30 09:46:07 23° 67° (ENE) 09:49:50 435.000
Cosmos 2504 23 May 09:45:39 09:52:45 32° 87° (E) 09:59:40 435.465 / 435.565
NANOSAT C BR1 23 May 09:53:22 09:55:11 13° 64° (ENE) 09:57:12 145.865
RS-15 23 May 09:54:43 10:05:29 72° 118° (ESE) 10:16:35 29.354- 29.394
Oscar 11 23 May 09:56:13 10:00:01 30° 96° (E) 10:03:51 145.826/435.025
QB50P2 23 May 09:57:38 09:59:58 15° 65° (ENE) 10:02:28 145.880/145.840
CANX-2 23 May 09:59:57 10:04:05 54° 286° (WNW) 10:08:10 2200.000
UNISAT 6 23 May 10:00:20 10:04:34 35° 70° (ENE) 10:08:50 437.425
CUTE 1.7 + AOD 2 23 May 10:04:11 10:08:19 53° 286° (WNW) 10:12:23 437.475
PCSat 23 May 10:05:38 10:10:10 27° 47° (NE) 10:14:45 145.827
UWE-3 23 May 10:09:46 10:13:44 31° 95° (E) 10:17:37 435.000/436.395/437.385
POPSAT HIP 1 23 May 10:10:14 10:13:15 19° 67° (ENE) 10:16:24 437.405
DUCHIFAT 1 23 May 10:15:30 10:18:41 21° 68° (ENE) 10:22:00 145.980
HO-68 23 May 10:23:28 10:30:31 61° 291° (WNW) 10:37:30 435.675
DELFI C3 23 May 10:29:32 10:33:28 52° 100° (E) 10:37:23 145.870
FUNcube-1 23 May 10:31:08 10:35:16 41° 97° (E) 10:39:19 145.935
SEEDS 23 May 10:33:50 10:37:32 30° 289° (WNW) 10:41:11 437.485
ANTELSAT 23 May 10:42:58 10:47:42 86° 257° (WSW) 10:52:25 437.575/2403.000
CUBEBUG 2 23 May 10:49:33 10:54:07 76° 284° (WNW) 10:58:28 437.445
BRITE-PL 23 May 10:52:13 10:54:57 13° 300° (WNW) 10:57:23 437.365/2234.400
POLYITAN 1 23 May 10:53:01 10:57:14 56° 73° (ENE) 11:01:29 437.675
QB50P1 23 May 10:53:26 10:57:36 56° 74° (ENE) 11:01:49 145.935-145.965
COMPASS 1 23 May 10:54:11 10:57:32 23° 291° (WNW) 11:00:45 437.405
BUGSAT 1 23 May 10:56:53 11:00:44 40° 72° (ENE) 11:04:41 437.445
DOVE 4 23 May 10:58:32 11:02:23 21° 296° (WNW) 11:05:59 437.250
PHONESAT 2.4 23 May 10:59:26 11:00:29 11° 213° (SSW) 11:01:26 2401.200-2431.200
CINEMA 3 23 May 11:07:01 11:11:10 28° 292° (WNW) 11:15:05 145.822/145.860
ESTCUBE 1 23 May 11:08:12 11:10:46 15° 90° (E) 11:13:33 437.505/2401.250
ZACube-1 23 May 11:09:43 11:14:06 71° 285° (WNW) 11:18:21 437.345
AAUSAT CUBESAT 2 23 May 11:10:19 11:13:14 18° 293° (WNW) 11:16:02 437.432
GOMX 1 23 May 11:17:07 11:18:48 11° 301° (WNW) 11:20:09 467.674
TIGRISAT 23 May 11:18:15 11:22:40 38° 263° (W) 11:27:03 435.000
UKube-1 23 May 11:20:15 11:24:36 65° 101° (ESE) 11:28:55 .
VELOX 1 23 May 11:20:46 11:24:52 34° 97° (E) 11:28:58 145.980
DX 1 23 May 11:22:44 11:27:10 75° 103° (ESE) 11:31:33 434.975-435.025
NANOSAT C BR1 23 May 11:26:20 11:30:34 62° 259° (W) 11:34:50 145.865
QB50P2 23 May 11:31:16 11:35:28 53° 260° (W) 11:39:42 145.880/145.840
CUBEBUG 1 23 May 11:31:28 11:35:00 23° 93° (E) 11:38:38 437.445
Oscar 11 23 May 11:32:36 11:36:05 24° 292° (WNW) 11:39:28 145.826/435.025
UNISAT 6 23 May 11:37:32 11:41:26 24° 267° (W) 11:45:12 437.425
Cosmos 2504 23 May 11:37:40 11:45:55 53° 284° (WNW) 11:53:36 435.465 / 435.565
HUMSAT D 23 May 11:38:03 11:42:15 74° 284° (WNW) 11:46:22 437.325/437.525
POPSAT HIP 1 23 May 11:44:52 11:48:53 38° 263° (W) 11:52:55 437.405
UWE-3 23 May 11:46:31 11:50:09 24° 292° (WNW) 11:53:35 435.000/436.395/437.385
PCSat 23 May 11:48:38 11:53:52 49° 246° (WSW) 11:59:03 145.827
DUCHIFAT 1 23 May 11:50:25 11:54:19 34° 263° (W) 11:58:14 145.980
AISAT 23 May 11:50:35 11:55:07 76° 102° (ESE) 11:59:36 437.250
50 SAT 23 May 11:57:06 12:01:01 77° 284° (WNW) 12:04:52 437.505
DELFI C3 23 May 12:06:14 12:08:11 13° 295° (WNW) 12:09:58 145.870
SO-50 23 May 12:06:33 12:10:39 25° 43° (NE) 12:14:47 436.795
FUNcube-1 23 May 12:08:13 12:11:19 19° 294° (WNW) 12:14:13 145.935
RS-15 23 May 12:08:47 12:18:53 39° 324° (NW) 12:29:11 29.354- 29.394
HO-68 23 May 12:14:12 12:16:59 12° 310° (NW) 12:19:21 435.675
GONETS M04 23 May 12:14:59 12:20:10 18° 79° (E) 12:25:53
CUSAT 1 23 May 12:25:06 12:30:10 22° 82° (E) 12:36:05 437.405
SPROUT 23 May 12:26:20 12:29:55 25° 94° (E) 12:33:33 437.525
POLYITAN 1 23 May 12:31:30 12:33:34 13° 271° (W) 12:35:25 437.675
QB50P1 23 May 12:31:52 12:33:54 13° 271° (W) 12:35:43 145.935-145.965
BUGSAT 1 23 May 12:33:42 12:36:26 17° 269° (W) 12:39:04 437.445
ESTCUBE 1 23 May 12:43:36 12:48:01 51° 287° (WNW) 12:52:24 437.505/2401.250
VELOX 1 23 May 12:57:41 13:01:16 23° 293° (WNW) 13:04:44 145.980
UKube-1 23 May 12:58:12 13:00:16 13° 297° (WNW) 13:02:08 .
DX 1 23 May 13:01:15 13:02:52 12° 298° (WNW) 13:04:15 434.975-435.025
TISAT 1 23 May 13:05:24 13:09:34 49° 99° (E) 13:13:43 437.305
DANDE 23 May 13:07:15 13:13:08 35° 86° (E) 13:20:18 436.750
CUBEBUG 1 23 May 13:07:26 13:11:26 33° 290° (WNW) 13:15:23 437.445
Oscar 19 23 May 13:22:16 13:27:26 73° 75° (ENE) 13:32:39 437.125/150
ITAMSAT 1 23 May 13:28:27 13:32:37 26° 66° (ENE) 13:36:54 435.822/435.867
AISAT 23 May 13:29:26 13:31:08 12° 298° (WNW) 13:32:38 437.250
ITUPSAT 1 23 May 13:37:30 13:40:37 18° 91° (E) 13:43:55 437.325
Gurwin Techsat 1B 23 May 13:41:57 13:46:34 32° 68° (ENE) 13:51:17 435.225
SO-50 23 May 13:46:41 13:51:29 50° 242° (WSW) 13:56:11 436.795
BEESAT 23 May 13:47:25 13:51:07 23° 93° (E) 13:54:56 436.000
SWISSCUBE 23 May 13:54:56 13:59:05 29° 95° (E) 14:03:17 437.505
SPROUT 23 May 14:02:14 14:06:00 29° 290° (WNW) 14:09:42 437.525
CUSAT 1 23 May 14:04:57 14:11:55 77° 282° (WNW) 14:20:11 437.405
GONETS M04 23 May 14:07:06 14:15:57 90° 284° (WNW) 14:24:52
RS-15 23 May 14:27:32 14:35:39 22° 357° (N) 14:43:59 29.354- 29.394
Cosmos 2499 23 May 14:27:37 14:33:30 23° 84° (E) 14:39:24 435.465 / 435.565
AO-7 23 May 14:29:24 14:36:03 29° 57° (ENE) 14:42:56 29.400- 29.500
JAS-2 23 May 14:37:05 14:42:13 25° 66° (ENE) 14:47:06 435.910
TISAT 1 23 May 14:42:21 14:44:59 16° 295° (WNW) 14:47:28 437.305
HORYU 2 23 May 14:47:04 14:50:26 22° 67° (ENE) 14:53:56 437.375
DANDE 23 May 14:49:31 14:56:05 49° 289° (WNW) 15:04:02 436.750
KKS-1 23 May 14:56:32 14:59:51 21° 93° (E) 15:03:16 437.445
Oscar 19 23 May 15:04:46 15:07:26 13° 272° (W) 15:09:50 437.125/150
ITAMSAT 1 23 May 15:07:06 15:11:57 40° 262° (W) 15:16:48 435.822/435.867
ITUPSAT 1 23 May 15:14:13 15:18:51 49° 288° (WNW) 15:23:27 437.325
Gurwin Techsat 1B 23 May 15:21:46 15:26:32 33° 264° (W) 15:31:17 435.225
O/OREOS (USA 219) 23 May 15:23:21 15:24:45 12° 99° (E) 15:26:25 437.305
BEESAT 23 May 15:24:41 15:29:07 38° 290° (WNW) 15:33:30 436.000
SWISSCUBE 23 May 15:32:45 15:36:55 30° 292° (WNW) 15:41:01 437.505
CUSAT 1 23 May 15:51:30 15:56:21 17° 305° (NW) 16:01:09 437.405
GONETS M04 23 May 16:08:02 16:14:17 20° 300° (WNW) 16:20:08
STARS 23 May 16:09:46 16:14:13 79° 103° (ESE) 16:18:38 437.465
Cosmos 2499 23 May 16:17:52 16:26:08 69° 281° (W) 16:33:47 435.465 / 435.565
AO-7 23 May 16:20:01 16:28:17 70° 256° (WSW) 16:36:36 29.400- 29.500
JAS-2 23 May 16:20:11 16:27:04 59° 259° (W) 16:33:09 435.910
HORYU 2 23 May 16:22:42 16:26:53 37° 262° (W) 16:31:03 437.375
KKS-1 23 May 16:32:29 16:36:39 37° 289° (WNW) 16:40:45 437.445
DANDE 23 May 16:40:33 16:41:59 10° 313° (NW) 16:42:52 436.750
RS-15 23 May 16:42:59 16:52:54 33° 31° (NNE) 17:03:24 29.354- 29.394
CUTE-I 23 May 16:53:01 16:55:47 15° 61° (ENE) 16:58:47 437.470
O/OREOS (USA 219) 23 May 16:59:10 17:03:41 67° 295° (WNW) 17:08:10 437.305
Cubesat XI-IV 23 May 17:11:07 17:14:59 22° 64° (ENE) 17:19:02 437.490
MOZHAYETS 4 23 May 17:32:55 17:37:30 79° 102° (ESE) 17:42:05
STARS 23 May 17:48:45 17:50:05 11° 298° (WNW) 17:51:12 437.465
YUBILEINY 23 May 17:53:40 18:00:30 26° 64° (ENE) 18:07:34 435.215
Cosmos 2491 23 May 18:02:33 18:04:23 11° 75° (ENE) 18:06:59 435.465 / 435.565
